Simultaneous Nadir Overpasses (SNOs) Predictions

Prediction of SNOs between GOES-15 and METOP-B Satellite Orbit:

Table of predicted SNOs for the next 14.0 days since TLE Epoch: 9/12/2025
Index Date Time (GOES-15) GOES-15 Lat,Lon METOP-B Lat,Lon Distance(km) Time Diff (sec)
1 09/14/2025 05:14:58 0.42, 61.30 1.37, 57.06 483.07 80
2 09/15/2025 04:51:41 0.39, 61.30 0.20, 62.03 83.53 80
3 09/16/2025 17:13:23 -0.44, 61.42 -1.32, 57.43 454.82 80
4 09/17/2025 16:50:06 -0.41, 61.42 -0.22, 62.41 111.76 80
5 09/19/2025 05:11:40 0.45, 61.30 1.24, 57.82 396.99 80
6 09/20/2025 04:48:24 0.42, 61.30 0.08, 62.79 169.71 80
7 09/21/2025 17:10:06 -0.47, 61.42 -1.18, 58.18 368.48 80
8 09/22/2025 16:46:49 -0.43, 61.42 -0.07, 63.16 198.11 80
9 09/24/2025 05:08:23 0.48, 61.30 1.10, 58.58 311.07 80
10 09/25/2025 04:45:06 0.45, 61.31 -0.07, 63.54 255.42 80
11 09/26/2025 17:06:48 -0.50, 61.43 -1.08, 58.95 283.57 80
